Tracking 31027 objects as of 19-Jul-2025
HD Live streaming from Space Station
objects crossing your sky now

STARLINK-1569

Track STARLINK-1569 now!
10-day predictions
STARLINK-1569 is classified as:


NORAD ID: 46039
Int'l Code: 2020-055N
Perigee: 553.4 km
Apogee: 555.3 km
Inclination: 53.1 °
Period: 95.6 minutes
Semi major axis: 6925 km
RCS: Unknown
Launch date: August 7, 2020
Source: United States (US)
Launch site: AIR FORCE EASTERN TEST RANGE (AFETR)
Your satellite tracking list
COSMOS 1408 DEB
Track 1 satellite(s)




NASA's NSSDC Master Catalog

Two Line Element Set (TLE):
1 46039U 20055N   25199.41374653 -.00000599  00000-0 -21314-4 0  9993
2 46039  53.0555  98.3249 0001395  99.4835 260.6312 15.06399797273578
Source of the keplerian elements: AFSPC